STARLINK-32370, 61635

Orbit data source: Space-Track

STARLINK-32370, 61635 is a payload satellite owned by SpaceX/Seattle (US) in LEO that was launched on Wed, 23 Oct 2024 UTC via an FALCON 9 launch vehicle from the Air Force Eastern Test Range (AFETR). Payload-class satellites include a variety of spacecraft equipped with specific instruments for various scientific and technological missions. These include communications satellites like Starlink; space stations such as the ISS; scientific satellites like the Hubble; Earth observation satellites from companies like Planet Labs, Umbra, and HawkEye 360; GPS; miniature CubeSats for education and research; and military/defense satellites.

Loading next visibility...
Identifier
61635, 2024-191Q
Orbit
LEO
Country
Flag of USUS
Related business
Manufacturer
SpaceX/Seattle
Mission
Operational Commercial Communications
Bus & Motor
STARLINK V2M, Unknown motor
Mass
730 kg wet, ~700 kg dry
Launch date (UTC)
2024-10-23 (2 years ago)
Launch vehicle
FALCON 9
Launch site
Air Force Eastern Test Range (AFETR)
Object type
Payload
Rocket body
Debris
Shape & HBR
Box + 2 Pan, 17.7 m
Radar Cross Section
33.884 m², Large (>1 m²)

Expand to show TLE details & history
Last TLE update: 7 hours ago

TLE from 7 hours ago
0 STARLINK-32370
1 61635U 24191Q   26128.14968029  .00000601  00000-0  31382-4 0  9994
2 61635  43.0003 178.3899 0001469 275.4126  84.6558 15.27578045 86638
Epoch: 2026-05-08T03:35Z
TLE epoch observation values (Epoch: 2026-05-08T03:35:32.377Z)
Latitude
-0°
Longitude
-101.48061°
Altitude
482.737 km
Speed
7.626 km/s
True Right ascension
11h 53m 33s
True Declination
0° 00' 00"
Sunlit
Object was in full shadow at epoch
Visualization orbit readout
Latitude
Unknown
Longitude
Unknown
Altitude
Unknown
Speed
Unknown
Apparent Right ascension
Unknown
Apparent Declination
Unknown
Sunlit
N/A
Visualization observer readout
Local Sidereal Time
19:06:47
Azimuth
Unknown
Elevation
Unknown
Doppler factor
Unknown
Orbital elements
Apogee altitude
486.008 km
Perigee altitude
483.992 km
Semi-major axis
6,863.137 km
Eccentricity
0.00015
Inclination
43.0003°
RAAN
178.3899°
Arg. of periapsis
275.4126°
True anomaly
84.67256°
Mean anomaly
84.6558°
Eccentric anomaly
84.66418°
Mean motion
3.81733 °/min
Orbital period
94.31 mins
BSTAR
0.000031382
Loading maneuver chart data...
Computing Atmospheric mass density...
Loading historical data...
Loading historical data...
Loading historical data...
Loading historical data...
Loading historical data...
Loading historical data...
Loading historical data...

Documentation

Showing up to 5 results
|